#timestamp,LO_Frequency,Hit,StdDev 
1637632815.1,286046986.7,P
1637632835.8,286046992.7,Y
1637632855.7,286047013.2,P
1637632875.5,286047018.5,N
1637632895.4,286047021.4,N
1637632915.2,286047023.1,N
1637632935.0,286047011.7,N
1637632935.9,286047011.7,N
1637632955.8,286047011.7,N
1637632975.6,286047006.9,N
1637632995.4,286047009.0,N
1637633015.3,286047008.0,N
1637633035.1,286047014.0,N
1637633055.9,286047010.0,N
1637633075.7,286047013.3,N
1637633095.5,286047012.9,N
1637633115.4,286047010.7,N
1637633135.2,286047013.6,N
1637633155.0,286047016.3,N
1637633155.9,286047016.3,N
1637633175.8,286047008.7,N
1637633195.6,286047013.2,N
1637633215.5,286047013.8,N
1637633235.3,286047011.0,N
1637633255.1,286047010.2,N
1637633275.9,286047017.2,N
1637633295.7,286047014.8,N
1637633315.5,286047012.5,N
1637633335.4,286047019.4,Y
1637633355.2,286047008.5,P
1637633375.1,286047012.4,P
1637633376.0,286047012.4,P
1637633395.8,286047004.3,N
1637633415.6,286046994.7,N
1637633435.5,286046993.8,N
1637633455.3,286046988.9,N
1637633475.1,286046991.2,N
1637633495.9,286046987.1,N
1637633515.7,286046983.8,N
1637633535.6,286046994.7,N
1637633555.4,286046996.2,N
1637633575.2,286047002.6,N
1637633595.1,286047003.8,N
1637633596.0,286047003.8,N
1637633615.8,286047005.2,N
1637633635.6,286047004.9,N
1637633655.5,286047004.1,N
1637633675.3,286047005.3,N
1637633695.2,286047007.2,N
1637633715.9,286047007.9,N
1637633735.7,286047015.3,N
1637633755.6,286047011.5,N
1637633775.4,286047012.3,N
1637633795.2,286047008.7,N
1637633815.1,286047000.6,N
1637633816.0,286047000.6,N
1637633835.8,286047004.0,N
1637633855.7,286047009.0,N
1637633875.5,286047008.2,N
1637633895.3,286047006.2,N
1637633915.2,286047009.2,N
1637633935.0,286047010.4,N
1637633935.9,286047010.4,N
1637633955.8,286047012.9,N
1637633975.6,286047016.3,N
1637633995.4,286047013.5,N
1637634015.3,286047018.5,N
1637634035.1,286047012.5,N
1637634055.8,286047011.5,N
1637634075.7,286047020.3,Y
1637634095.5,286047005.8,P
1637634115.4,286047006.0,P
1637634135.2,286047007.8,P
1637634155.0,286047014.0,Y
1637634155.9,286047014.0,P
1637634175.8,286047004.7,N
1637634195.6,286047002.8,N
1637634215.5,286047004.5,N
1637634235.3,286047009.4,N
1637634255.1,286047009.0,N
1637634275.9,286047008.5,N
1637634295.7,286047011.5,Y
1637634315.6,286047004.9,P
1637634335.4,286047003.1,N
1637634355.2,286047000.2,N
1637634375.1,286047001.1,N
1637634376.0,286047001.1,N
1637634395.8,286047009.0,Y
1637634415.7,286047003.9,P
1637634435.5,286047000.2,N
1637634455.3,286046998.2,N
1637634475.2,286046991.8,Y
1637634495.0,286046991.4,P
1637634495.9,286046991.4,N
1637634515.7,286046991.6,N
1637634535.6,286046993.8,N
1637634555.4,286046996.8,N
1637634575.3,286046998.1,N
1637634595.1,286047001.8,N
1637634596.0,286047001.8,N
1637634615.8,286047004.5,N
1637634635.7,286047010.1,N
1637634655.5,286047012.2,N
1637634675.3,286047011.8,N
1637634695.2,286047010.6,N
1637634715.0,286047005.1,N
1637634715.9,286047005.1,N
1637634735.8,286047002.3,N
1637634755.6,286047003.7,N
1637634775.4,286047003.1,N
1637634795.3,286047009.2,N
1637634815.1,286047007.4,N
1637634835.8,286046999.2,N
1637634855.7,286047002.8,N
1637634875.5,286046999.1,N
1637634895.4,286047001.7,N
1637634915.2,286047008.3,N
1637634935.0,286047015.0,N
1637634935.9,286047015.0,N
1637634955.8,286047009.7,N
1637634975.6,286047007.3,N
1637634995.5,286047005.3,N
1637635015.3,286047003.0,N
1637635035.1,286047005.4,N
1637635055.9,286047006.2,N
1637635075.7,286047011.9,N
1637635095.5,286047009.3,N
1637635115.4,286047011.8,N
1637635135.2,286047017.1,Y
1637635155.1,286047013.9,P
1637635156.0,286047013.9,P
1637635175.8,286047015.2,P
1637635195.6,286047017.4,Y
1637635215.5,286047009.1,P
1637635235.3,286047007.4,P
1637635255.2,286047009.5,P
1637635275.9,286047008.9,Y
1637635295.7,286046998.6,P
1637635315.6,286046998.7,N
1637635335.4,286047000.8,N
1637635355.2,286046997.7,N
1637635375.1,286046999.7,N
1637635376.0,286046999.7,N
1637635395.8,286047000.1,N
1637635415.7,286047002.7,N
1637635435.5,286047001.7,N
1637635455.3,286046996.8,N
1637635475.2,286046990.2,N
1637635495.0,286046993.8,N
1637635495.9,286046993.8,N
1637635515.8,286046995.5,N
1637635535.6,286046994.3,N
1637635555.4,286046990.1,N
1637635575.3,286046991.6,N
1637635595.1,286046994.2,N
1637635615.8,286046987.6,N
1637635635.7,286046983.1,Y
1637635655.5,286046990.4,P
1637635675.4,286046991.8,N
1637635695.2,286046985.6,P
1637635715.0,286046990.0,N
1637635715.9,286046990.0,N
1637635735.8,286046994.6,N
1637635755.6,286046990.7,N
1637635775.4,286046990.8,N
1637635795.3,286046994.6,N
1637635815.1,286046994.4,N
1637635835.9,286046992.1,N
1637635855.7,286046989.6,Y
1637635875.5,286046990.8,P
1637635895.4,286046990.7,P
1637635915.2,286046989.9,P
1637635935.1,286046987.0,Y
1637635936.0,286046987.0,P
1637635955.8,286047000.3,N
1637635975.6,286047001.5,N
1637635995.5,286046997.7,N
1637636015.3,286046991.7,N
1637636035.1,286047000.1,N
1637636055.9,286047003.1,N
1637636075.7,286047006.1,N
1637636095.6,286047011.0,N
1637636115.4,286047012.7,N
1637636135.2,286047015.2,N
1637636155.1,286047012.5,N
1637636156.0,286047012.5,N
1637636175.8,286047018.0,N
1637636195.6,286047007.9,N
1637636215.5,286047006.2,N
1637636235.3,286047011.1,N
1637636255.2,286047013.8,N
1637636275.9,286047013.8,N
1637636295.7,286047013.9,N
1637636315.6,286047008.7,N
1637636335.4,286047006.9,N
1637636355.2,286047010.7,N
1637636375.1,286047013.1,N
1637636376.0,286047013.1,N
1637636395.8,286047005.7,N
